Location: Eimen
(51.8766°N, 9.7806°E)
Time: 10:50:23
(UTC+00:00)

Aureole 3 - Pass Details

Date: 23 May 2024
Orbit: 378 x 1127 km, 82.5° (Epoch: 18 June)

Event Time Altitude Azimuth Distance (km) Brightness Sun altitude
Exits shadow 01:10:20 18° 255° (WSW) 1,040 4.4 -13.4°
Maximum altitude 01:11:33 22° 290° (WNW) 887 4.3 -13.3°
Drops below altitude 10° 01:14:02 10° 345° (NNW) 1,433 6.2 -13.1°
Sets 01:16:22 0° 1° (N) 2,346 7.7 -13.0°
